User: anonymous   Login
Location: Burgerwiesen
(48.6500°N, 15.6167°E)
Time: 02:31:41
(UTC+00:00)
Language:

Cosmos 1814 Rocket - Orbit

View from above orbital plane
View from above orbital plane
View from above satellite
View from above satellite

Ground track
Ground track

The orbit data is extracted from the following two-line orbital elements,

1 17304U 87006B   20192.45424785 -.00000085 +00000-0 -19506-4 0  9999
2 17304 074.0560 193.2513 0028533 112.6952 247.7223 14.37695847753927
Epoch (UTC): 10 July 2020 10:54:07
Eccentricity: 0.0028533
inclination: 74.0560°
perigee height: 746 km
apogee height: 786 km
right ascension of ascending node: 193.2513°
argument of perigee: 112.6952°
revolutions per day: 14.37695847
mean anomaly at epoch: 247.7223°
orbit number at epoch: 75392

The dashed part of the orbit path shows where the satellite is in the earth's shadow,  

DLR